Wind_Speed
47 47 45 43 43 44 45 44 43 42 41 41 41 41 43 47 49 49 50 50 51 51 51 49 48 46 43 41 41 41 40 40 39 38 38 39 41 42 42 40 39 37 37 38 37 36 36 35 34 33 32 32 33 35 37 37 37 37 36 36 36 36 37 36 36 34 32 31 30 29 28 27 26 26 25 24 22 21 20 19 18 18 19 19 19 19 19
47 49 48 46 45 46 47 47 46 45 43 42 41 40 41 43 47 48 49 49 49 49 50 50 49 47 43 41 41 41 41 41 40 38 39 40 43 44 42 41 39 38 39 40 39 38 39 37 35 34 33 33 35 37 38 38 38 37 37 36 36 36 36 36 35 33 32 31 30 28 27 26 25 25 24 23 22 21 19 18 18 18 18 19 18 18 18
46 49 50 49 47 47 49 50 49 47 45 44 43 43 43 44 45 47 47 49 49 49 50 51 51 48 46 44 44 44 43 41 39 36 35 36 38 39 38 38 38 39 41 41 40 40 40 37 34 34 33 34 36 38 39 39 38 38 37 37 37 36 36 35 33 32 31 30 29 28 27 25 24 24 23 22 21 20 19 18 18 18 19 19 18 18 17
46 48 50 50 48 47 49 51 51 49 47 46 46 45 45 45 45 46 47 48 49 50 50 50 49 47 44 43 43 44 44 43 40 37 35 35 36 37 36 35 36 37 38 39 39 38 36 34 33 33 34 36 38 39 39 39 38 38 38 38 37 36 35 33 32 31 30 30 29 27 26 25 24 23 22 21 20 20 19 19 19 19 19 19 19 18 17
46 47 48 49 48 47 48 49 50 50 49 48 47 46 46 46 46 45 46 47 48 50 49 47 45 43 41 40 40 41 43 43 42 38 36 35 35 35 35 34 34 35 35 36 37 36 33 33 34 34 35 37 38 39 38 38 38 38 38 38 37 35 34 32 31 30 29 28 28 26 25 24 23 22 21 20 20 20 20 20 20 20 19 19 19 19 18
44 46 45 46 48 48 47 47 47 48 48 48 48 48 49 49 48 46 46 45 47 49 49 46 43 39 38 39 39 41 42 42 40 37 34 33 33 33 34 34 34 34 34 35 35 34 33 33 34 34 35 36 37 38 38 38 38 38 38 37 36 35 33 31 30 28 27 27 26 26 25 24 24 23 22 21 21 21 21 21 21 21 20 19 19 19 19
39 40 40 43 48 49 47 46 46 45 45 46 47 49 51 51 49 47 46 45 46 47 48 47 44 40 39 40 41 41 40 39 38 37 35 33 33 33 34 36 37 36 34 33 34 33 33 33 33 33 35 36 37 37 37 37 37 37 37 36 35 34 32 30 29 28 26 26 25 25 25 25 24 23 23 22 22 22 22 22 22 22 21 20 19 20 20
40 38 37 40 46 47 46 46 45 44 44 45 46 48 51 52 51 48 47 46 45 45 47 47 46 43 40 39 41 40 36 33 33 35 36 37 36 37 37 37 37 37 35 34 34 33 32 32 32 33 34 35 36 36 36 36 36 36 36 35 34 33 31 29 28 27 26 26 25 25 25 25 24 24 23 23 22 22 22 22 21 21 21 20 20 20 20
42 40 39 40 43 44 44 44 44 42 42 44 46 47 50 53 53 50 49 48 45 43 44 45 46 45 43 41 41 41 37 33 30 29 30 32 32 35 39 39 36 35 34 32 32 31 31 31 32 33 34 35 35 35 35 35 35 35 34 33 33 32 30 28 28 27 27 27 27 26 26 25 25 24 23 23 21 21 20 20 20 20 20 21 21 21 21
39 38 39 41 43 42 38 38 39 40 40 43 44 45 47 51 53 53 50 48 47 45 45 44 44 45 45 44 43 41 39 37 34 32 32 30 27 28 33 37 35 32 29 27 27 29 31 32 33 33 34 34 34 34 34 34 34 33 32 31 31 30 29 29 28 28 28 28 28 27 26 25 25 24 23 22 20 20 19 19 19 19 20 20 21 22 21
34 35 36 37 38 36 33 33 37 39 40 40 40 42 43 46 51 54 52 49 47 47 45 45 45 46 46 46 44 42 40 39 38 37 36 35 32 28 27 32 34 31 29 28 28 29 30 31 32 32 33 33 33 33 32 32 31 30 30 29 29 29 29 29 30 29 29 28 28 27 25 25 24 24 23 22 21 20 20 19 19 20 20 20 21 21 21
27 30 32 32 33 32 30 31 37 39 38 37 37 38 39 41 45 52 54 52 49 48 45 44 45 46 46 45 43 41 40 39 37 35 34 35 34 30 27 28 31 30 30 30 30 29 30 30 30 31 31 31 31 30 29 29 29 28 28 29 29 30 30 30 30 29 28 27 26 25 25 24 24 23 23 22 22 22 22 22 22 22 22 22 21 21 20
22 23 26 28 29 29 27 28 34 36 35 36 36 35 34 35 39 45 48 47 46 46 46 44 44 44 45 45 43 41 41 39 36 34 34 34 34 31 28 28 29 30 30 30 30 30 29 29 28 29 29 29 28 28 27 27 28 28 28 29 29 30 30 29 28 27 26 25 24 24 24 24 24 23 23 23 23 23 23 23 23 24 23 23 23 22 21
20 21 23 25 28 27 24 24 27 32 34 36 35 32 32 34 37 40 43 43 42 43 43 42 42 41 40 39 37 35 36 37 37 35 33 33 33 31 29 29 30 30 30 30 30 29 28 27 27 27 27 27 27 27 27 27 28 28 29 29 29 28 28 27 27 26 25 24 23 23 24 24 24 24 24 24 24 24 25 26 25 25 24 24 23 23 22
21 21 21 24 26 26 23 19 19 24 29 31 30 27 27 32 35 37 39 39 39 39 40 39 40 38 35 33 31 30 29 30 33 35 32 30 30 31 31 30 30 30 31 30 29 28 27 27 27 27 27 27 27 27 27 27 27 28 28 28 28 28 27 27 26 25 24 23 23 23 24 24 24 24 24 25 25 26 27 26 25 23 21 21 21 21 22
23 21 20 20 22 24 24 20 17 18 20 23 24 22 21 25 29 32 33 33 33 34 35 37 38 38 37 36 34 33 30 27 28 31 31 29 28 29 29 29 29 30 30 29 28 27 27 27 27 27 27 27 27 26 26 26 27 27 27 28 28 27 27 26 26 25 24 24 24 23 23 24 24 24 25 25 26 25 23 21 19 18 17 17 17 18 19
25 23 21 20 21 22 23 22 21 19 17 18 20 20 20 22 25 28 29 30 31 31 32 34 35 35 36 37 35 33 32 29 27 28 29 28 28 28 28 29 29 29 29 28 27 26 26 26 26 26 27 26 26 26 26 26 26 27 27 28 27 26 26 25 25 25 25 24 23 23 23 23 23 23 23 23 22 20 18 17 16 16 16 16 17 17 17
26 25 23 22 22 23 22 21 21 20 20 19 19 18 19 21 23 25 27 27 28 29 31 31 31 30 29 30 31 31 31 30 28 27 27 27 28 28 28 29 29 28 28 27 26 26 26 26 26 26 26 26 26 26 26 26 27 27 26 25 24 24 24 24 24 24 24 23 22 22 22 22 21 21 21 21 19 18 17 17 17 17 18 18 18 18 19
25 24 24 24 25 25 24 23 21 20 20 21 21 19 19 20 22 24 25 26 27 28 29 30 30 28 25 23 23 24 27 28 28 28 28 28 29 29 29 29 29 28 28 27 27 27 26 26 26 26 26 26 26 26 27 27 26 25 24 23 23 23 23 23 23 23 23 23 22 22 22 22 21 21 20 19 18 18 18 18 19 19 19 20 20 20 21
24 23 23 24 24 25 24 24 23 21 21 21 22 22 21 20 21 23 25 26 27 28 27 28 29 27 24 22 22 23 26 28 28 28 28 28 29 29 30 30 29 28 28 27 27 27 27 26 26 26 27 27 27 27 27 25 24 23 23 23 23 22 22 22 22 22 22 22 22 21 21 20 20 19 19 19 19 19 19 19 19 20 20 20 21 21 22
24 24 23 23 23 23 23 24 24 24 23 23 23 23 22 21 22 24 24 25 26 25 25 26 27 26 24 24 24 24 25 27 27 28 29 29 30 30 30 29 29 28 27 27 27 27 27 26 26 27 26 26 26 25 24 23 22 22 23 22 22 21 21 21 20 20 20 20 20 19 19 19 19 20 20 20 20 20 20 20 20 20 21 21 22 22 23
23 25 25 25 24 23 23 24 25 25 25 24 23 23 23 23 24 25 25 25 24 25 25 26 25 24 24 25 25 25 25 27 28 28 29 29 30 30 29 28 28 27 27 27 27 27 26 25 25 25 25 24 23 23 22 22 22 23 23 22 22 21 19 18 17 17 17 18 18 19 19 20 20 20 20 21 21 20 20 21 21 22 22 23 23 24 24
18 21 22 22 21 20 21 23 25 25 25 24 24 24 23 22 22 24 25 26 26 25 25 25 25 25 26 27 26 25 25 25 26 27 28 28 29 28 28 27 27 27 27 27 26 25 24 24 24 24 23 22 22 23 23 23 23 23 23 22 21 19 17 16 15 15 16 17 17 18 19 20 20 20 20 21 21 21 21 22 23 23 24 25 25 25 26
15 17 18 19 18 16 16 19 22 25 25 25 25 24 23 22 22 22 23 25 27 27 25 25 25 27 28 28 26 25 25 24 24 24 26 27 26 26 26 26 25 25 25 25 24 23 23 23 24 23 23 23 24 24 25 24 24 23 22 20 19 18 17 17 17 18 18 19 19 20 20 21 21 21 21 21 21 22 23 24 25 26 26 26 26 26 26
15 15 17 18 18 18 17 17 18 21 23 24 24 24 24 23 23 22 23 25 27 27 27 27 27 28 29 29 28 27 27 26 24 25 26 26 25 24 25 24 23 24 24 23 23 23 23 23 23 23 23 24 25 25 25 25 24 22 20 20 20 20 21 21 21 21 21 21 21 21 20 20 20 21 21 22 23 24 26 26 27 26 26 25 24 23 22
17 17 18 18 18 19 19 19 19 19 20 22 23 24 24 24 24 24 25 26 27 27 27 27 28 28 30 30 30 29 28 28 28 28 28 27 25 24 24 24 23 23 23 22 22 22 22 22 23 23 24 24 24 24 24 23 22 20 20 20 21 22 22 22 22 21 21 20 20 20 21 21 22 23 24 25 26 27 27 26 25 24 22 21 20 18 17
19 20 21 21 20 20 20 21 21 21 22 23 24 25 25 26 26 26 26 27 27 28 28 28 28 28 28 28 28 29 29 28 28 28 28 26 25 25 25 24 24 23 22 21 21 22 22 22 23 23 23 23 22 22 22 21 20 20 21 21 22 22 21 21 21 21 21 21 21 22 23 24 25 26 26 26 26 25 24 22 20 18 16 15 14 12 11
21 21 22 22 22 22 22 23 23 23 24 25 26 26 26 26 26 26 26 26 27 27 27 27 27 27 26 26 26 27 27 27 27 27 27 26 25 25 25 24 22 22 21 21 21 22 22 22 23 22 21 21 20 20 20 20 20 21 22 22 21 21 21 21 21 22 23 23 24 25 25 25 25 25 25 24 22 20 17 15 13 12 11 10 9 8 8
23 23 23 23 23 23 23 24 24 25 26 26 27 27 27 27 27 27 27 27 27 27 27 27 27 26 26 26 26 26 26 26 27 26 26 25 25 24 23 22 22 21 21 21 21 21 21 22 22 21 21 20 20 20 20 20 20 21 21 21 21 21 21 22 22 23 23 23 23 23 23 23 22 21 20 17 15 12 10 9 8 8 7 7 7 7 8
26 26 25 26 26 25 25 25 25 25 26 26 27 27 28 28 28 28 28 28 28 28 28 28 28 27 27 27 27 27 28 28 28 27 26 25 25 24 23 22 22 21 20 20 21 21 21 21 21 21 21 21 21 20 20 20 20 20 20 21 21 22 22 22 22 22 21 21 21 21 20 19 17 15 13 11 9 8 7 6 6 7 7 8 8 9 10
29 28 28 28 28 28 28 28 27 27 27 27 27 28 29 30 30 31 31 30 30 30 30 30 29 29 28 28 28 28 28 28 28 27 26 26 25 24 23 22 21 20 20 20 21 21 21 21 21 22 22 22 22 21 20 20 20 20 20 21 21 20 20 19 19 19 19 19 18 17 15 13 11 10 9 8 7 6 6 6 7 8 9 10 11 11 12
29 29 29 29 29 30 30 30 30 29 29 29 29 29 30 31 31 32 33 33 33 32 32 31 31 30 30 29 29 29 29 29 28 27 27 26 25 23 22 21 21 21 21 22 22 22 22 22 22 22 22 22 22 21 20 20 19 19 19 19 19 18 18 18 18 17 16 15 13 11 10 9 8 7 7 7 6 7 7 8 9 10 11 12 13 14 14
25 25 25 25 26 27 29 30 31 31 31 32 32 32 33 33 32 33 33 33 34 34 33 33 32 31 31 30 30 29 29 29 28 28 27 26 24 23 22 22 22 22 22 23 22 22 22 22 23 23 23 22 21 20 19 19 18 18 17 17 17 17 17 16 15 13 12 11 10 9 8 8 7 7 7 7 8 9 10 11 12 13 15 15 16 16 16
20 20 21 22 23 24 25 26 27 28 30 31 32 33 33 34 34 34 34 34 34 34 34 34 34 33 32 31 31 30 30 29 28 27 27 26 24 23 23 23 23 23 23 23 23 23 23 23 22 22 21 20 19 18 17 17 17 16 17 17 17 16 14 12 11 10 10 10 9 8 7 7 7 8 8 9 11 12 13 15 16 17 17 17 18 17 17
17 18 19 20 21 22 22 24 25 26 27 28 30 31 32 34 35 35 35 35 35 35 35 35 35 34 33 32 31 30 30 29 29 28 27 26 25 24 23 23 23 23 24 24 23 22 22 21 21 20 18 16 15 16 16 16 16 17 17 16 15 13 12 12 12 11 11 10 9 9 9 9 10 10 11 13 14 15 16 17 18 18 18 18 17 17 16
17 18 19 20 21 21 22 23 24 25 27 28 29 30 32 33 34 34 35 35 36 36 36 35 34 34 33 32 32 31 31 30 30 29 28 26 25 24 23 23 24 24 24 23 22 21 19 18 17 16 14 14 15 16 16 16 16 16 15 14 13 13 13 13 12 11 11 10 10 10 11 12 13 14 15 16 17 18 18 18 18 18 17 17 17 16 15
15 17 18 18 19 20 20 21 22 24 25 27 29 30 31 33 34 35 37 37 37 36 36 35 34 33 33 33 32 32 31 30 29 28 27 26 25 24 24 23 23 23 22 21 20 18 17 16 15 15 15 15 16 16 15 14 14 13 13 13 13 13 12 12 11 11 11 11 11 12 13 14 16 17 18 19 19 19 19 18 18 17 17 16 16 15 14
13 14 15 15 17 18 19 20 21 22 24 25 27 29 31 32 33 35 37 39 38 36 35 34 33 33 33 32 32 31 30 29 28 27 26 25 25 24 23 23 22 21 20 19 18 17 16 16 15 15 15 15 15 14 14 13 13 13 13 13 12 12 11 11 11 12 12 13 14 15 16 17 18 19 19 19 19 19 19 18 17 16 15 15 15 14 14
11 12 13 14 16 17 18 18 19 20 22 23 25 27 29 30 31 33 35 37 36 34 32 32 32 32 31 31 30 29 28 27 26 26 25 25 24 23 22 21 20 20 19 18 17 17 16 16 16 15 15 14 14 14 14 14 14 13 13 12 12 12 12 12 12 13 14 15 16 17 18 18 19 19 19 19 19 18 18 17 16 15 14 14 14 14 14
9 11 12 13 14 15 15 15 15 17 18 20 21 22 24 26 28 29 31 32 32 31 30 30 29 29 29 29 29 28 28 27 26 26 25 23 21 20 19 19 18 18 18 18 18 18 17 17 16 16 15 15 15 15 15 14 14 13 12 12 12 12 13 13 15 16 16 17 17 18 18 18 18 18 18 17 17 16 16 15 15 14 13 13 13 14 15
8 9 10 11 12 12 11 10 11 12 13 14 15 16 19 22 24 26 28 29 30 30 30 30 29 29 29 29 28 28 27 26 25 24 22 20 19 19 18 18 18 19 19 19 18 18 17 17 16 16 16 16 16 15 14 14 13 12 12 12 13 13 14 15 16 17 17 17 17 17 17 17 16 15 15 14 13 13 13 13 13 12 12 13 15 16 17
6 8 9 10 11 10 9 8 7 8 9 11 13 14 17 20 23 25 26 27 28 28 28 28 28 28 28 28 27 26 25 24 23 22 21 20 20 19 18 18 19 18 18 16 16 16 17 17 18 17 17 16 15 14 13 13 12 12 13 13 14 15 15 15 15 16 16 16 16 16 16 15 14 12 12 11 11 11 11 12 12 13 14 15 17 18 19
6 7 8 9 9 9 8 7 7 8 10 11 13 15 16 19 22 24 24 24 24 24 23 23 24 24 23 23 22 22 21 21 21 20 20 19 19 19 19 19 19 18 17 17 17 18 18 18 18 17 16 15 14 13 12 12 12 13 13 14 14 14 14 14 14 14 14 14 13 12 12 12 11 10 10 10 10 10 11 12 14 15 16 17 17 18 18
7 7 8 8 9 9 8 8 8 10 12 14 15 16 17 19 21 22 23 23 22 21 20 19 20 20 19 19 19 20 21 20 20 20 19 19 18 17 18 19 20 20 21 21 20 19 18 17 16 15 14 13 12 12 12 12 13 13 12 12 12 12 12 12 12 12 11 11 11 10 10 10 10 10 10 11 11 12 13 13 14 15 16 16 16 17 17
7 7 6 7 8 9 9 8 8 10 13 15 16 16 17 18 18 19 20 22 22 22 21 21 20 20 20 20 20 21 21 21 21 20 20 19 19 19 19 20 21 21 21 21 20 18 17 15 14 13 13 12 12 12 12 12 12 11 11 10 10 9 9 10 10 10 10 10 10 10 10 10 11 11 12 12 12 13 13 14 14 14 15 16 16 17 18
6 6 6 7 8 9 10 10 10 11 12 13 14 16 17 18 18 18 20 22 23 24 24 23 21 20 21 21 21 21 22 22 22 23 22 22 23 23 22 22 21 20 19 18 17 16 15 14 13 13 13 12 11 11 11 11 10 10 9 9 9 8 9 9 9 10 10 10 10 11 11 11 12 12 12 12 13 13 13 14 15 16 16 17 18 19 20
6 6 7 9 10 10 11 11 11 12 13 14 15 17 18 19 20 21 23 24 24 24 24 23 21 21 23 24 24 23 23 23 22 22 23 23 23 22 22 21 20 19 17 15 14 13 13 12 12 12 12 11 10 10 10 9 9 8 8 8 8 9 9 9 9 10 10 10 10 11 11 11 12 12 13 14 14 15 16 16 17 18 19 20 21 22 23
7 8 9 10 11 12 12 13 13 14 15 16 17 18 19 19 20 21 22 22 22 22 22 22 22 23 25 26 26 26 25 25 24 23 22 21 20 19 18 17 16 16 15 14 13 13 12 12 11 10 10 9 9 8 8 8 8 7 7 8 8 9 9 9 10 10 10 10 11 12 12 13 13 14 15 16 17 18 19 19 20 21 22 23 24 25 25
9 10 11 13 14 15 16 16 16 17 17 18 18 19 18 18 19 20 20 21 22 22 23 24 24 25 26 26 26 27 27 26 25 24 23 21 20 18 16 15 14 14 13 13 13 12 12 11 10 9 9 8 8 8 8 8 8 8 8 8 9 10 10 11 11 12 12 13 13 14 15 15 16 17 18 19 20 21 22 23 23 24 24 25 26 27 28
13 15 17 18 19 20 20 20 21 21 22 22 22 23 23 23 23 23 24 24 25 26 26 26 26 26 25 25 24 24 22 21 20 19 19 18 18 17 16 16 15 15 14 13 13 12 11 11 10 10 9 9 9 9 10 10 10 10 11 11 12 12 13 14 14 15 15 16 16 17 18 19 19 20 21 22 23 24 25 26 26 27 27 28 28 29 30
18 19 20 21 21 22 22 22 23 24 24 25 25 26 26 26 26 25 25 25 25 25 25 25 24 24 23 22 21 20 19 18 17 16 15 15 15 15 15 15 15 15 15 14 13 12 11 11 11 11 11 12 12 12 13 13 13 14 14 15 15 16 17 17 18 18 19 19 20 20 21 22 22 23 23 24 25 26 27 28 29 30 30 31 31 31 32
19 19 20 20 21 21 20 21 21 22 22 23 23 24 24 24 23 23 23 23 23 23 23 23 22 21 20 20 19 18 18 17 17 16 16 16 15 15 15 15 15 14 14 13 13 12 12 12 13 14 14 14 14 14 15 15 16 17 17 18 18 19 19 20 21 21 22 22 23 23 24 24 25 26 26 27 28 28 29 30 31 32 33 33 34 34 35
Wind_Direction
196 197 199 201 202 203 203 203 202 202 202 203 204 206 209 212 214 216 219 222 224 225 228 230 232 234 235 236 235 235 235 235 236 239 242 244 247 247 248 249 251 252 253 254 256 257 259 259 257 255 256 256 253 251 252 254 257 260 264 267 270 273 277 280 284 288 291 292 294 297 300 301 299 297 296 295 295 296 298 300 304 306 308 310 311 314 315
197 198 201 203 203 204 205 205 204 204 204 205 205 208 211 213 215 216 218 221 223 225 228 230 232 233 234 235 236 237 238 240 241 243 244 246 248 249 249 249 250 250 252 255 257 258 260 260 256 254 256 255 252 250 251 254 257 260 264 267 271 274 278 281 286 289 292 294 296 298 299 298 297 295 294 294 294 296 298 300 303 306 307 308 308 309 310
200 200 203 207 206 205 206 207 206 206 207 207 207 209 212 214 216 217 218 220 222 223 225 228 230 232 233 234 236 238 239 241 242 242 243 244 245 246 247 247 248 249 251 253 255 256 258 258 254 252 253 252 249 249 251 254 257 261 265 268 271 275 278 283 288 291 293 295 297 298 298 297 296 295 294 294 295 296 298 300 303 305 306 305 303 303 304
203 202 203 208 209 209 209 209 209 209 210 211 212 213 215 216 217 218 220 221 222 223 224 225 227 229 232 234 236 238 239 240 241 241 242 243 243 242 243 244 246 247 249 251 252 254 254 251 248 248 249 248 247 248 250 254 258 262 265 268 272 276 280 285 289 292 295 296 297 296 296 295 295 294 295 295 296 296 297 298 301 302 303 301 300 300 300
203 205 206 208 210 211 211 211 211 212 213 215 217 217 217 219 220 221 222 223 224 225 224 224 225 227 230 233 235 237 239 241 243 243 242 241 240 238 239 240 241 243 245 247 249 251 249 245 243 245 246 246 247 249 251 255 259 262 266 269 273 278 281 285 289 294 296 296 296 295 294 293 293 293 294 294 295 295 295 297 299 299 300 298 297 296 296
205 206 209 211 212 213 212 212 212 214 215 218 220 220 219 220 221 221 222 222 222 223 223 224 225 226 228 231 233 236 239 240 241 240 238 237 237 236 237 237 238 240 243 246 247 247 244 241 241 243 245 247 248 250 252 256 259 263 267 271 275 279 282 286 291 294 294 293 293 293 292 292 291 291 291 291 292 293 294 296 297 297 297 295 293 293 293
212 211 211 213 214 214 214 215 214 214 215 217 220 221 221 221 222 221 221 221 221 222 222 224 226 226 227 230 232 235 238 238 237 235 234 236 238 238 238 239 240 242 245 246 245 242 239 238 238 241 243 246 249 251 254 257 260 265 269 273 276 279 283 289 292 293 292 291 291 290 290 290 290 289 289 289 290 292 294 295 296 296 295 293 291 291 292
218 219 217 215 214 215 217 218 218 217 217 218 220 221 221 222 222 221 220 219 220 222 224 225 227 227 228 230 232 234 238 240 238 235 236 238 240 239 240 240 241 244 245 245 243 238 235 235 236 239 243 246 249 252 255 258 262 266 270 273 276 280 285 290 291 291 291 290 289 289 289 288 289 289 289 289 290 292 294 296 296 295 294 292 291 291 292
217 220 220 216 214 216 219 221 220 220 221 222 223 222 222 223 223 221 219 218 219 222 225 227 229 230 230 231 232 234 237 240 240 238 237 239 242 243 240 239 241 243 242 240 237 233 232 233 236 239 243 246 249 253 256 260 264 267 270 274 278 282 287 289 289 289 289 289 288 288 288 288 288 288 288 289 290 291 294 296 296 295 293 291 290 291 292
216 218 219 219 218 218 222 226 225 224 224 224 225 225 225 225 224 221 219 219 220 223 227 229 232 233 234 234 236 238 240 242 245 246 245 246 251 254 246 237 237 240 238 235 233 232 232 235 238 241 244 247 251 255 258 261 265 268 272 276 281 285 287 287 287 288 288 288 288 287 287 287 287 287 287 287 288 290 292 295 296 296 294 292 291 292 293
216 218 220 222 221 221 226 230 228 225 223 223 226 229 229 228 226 223 221 221 222 226 230 232 235 237 238 239 241 243 245 246 247 249 251 252 256 262 255 240 234 236 237 237 237 235 235 237 240 243 246 249 252 256 259 262 266 270 275 278 281 284 285 286 287 287 287 287 286 286 286 285 285 285 285 285 286 288 289 291 293 295 296 295 293 293 293
216 218 221 222 221 222 226 228 225 222 221 223 227 230 229 229 229 226 224 224 225 228 231 235 238 240 242 242 243 244 245 246 246 246 250 253 254 256 255 243 234 234 238 239 238 237 238 239 241 244 247 250 253 257 261 265 269 273 275 278 280 282 284 285 285 285 285 284 284 284 284 283 282 282 283 285 286 287 288 289 289 290 293 295 295 293 290
215 215 216 216 216 219 225 227 224 221 221 224 228 230 231 232 231 228 227 228 230 230 231 234 236 239 242 243 244 244 242 242 243 244 246 250 251 251 248 240 232 232 234 235 236 237 238 240 242 246 249 253 256 260 264 267 270 272 275 277 280 281 282 283 283 283 282 281 282 283 283 282 281 281 283 285 288 289 290 289 289 289 289 290 292 291 289
216 212 212 212 212 214 219 224 225 225 226 228 230 231 232 231 230 229 229 232 234 234 232 232 234 237 241 243 243 242 241 241 243 245 247 249 249 246 241 234 229 230 232 234 236 238 240 242 246 249 252 256 259 261 264 267 270 273 275 277 279 281 281 282 281 279 279 280 282 284 284 282 281 281 283 286 288 291 291 291 291 290 289 287 287 286 286
220 215 212 211 212 212 214 217 223 227 229 229 228 227 225 223 224 226 227 230 235 237 236 234 235 237 241 243 243 242 243 244 244 243 246 248 244 237 232 230 230 231 233 236 238 240 243 245 248 251 254 257 259 262 265 268 270 272 274 277 279 281 281 280 279 277 277 280 284 287 286 284 282 281 283 286 289 291 293 293 293 291 289 287 285 284 283
217 215 213 212 214 216 217 218 221 223 222 219 217 216 214 213 217 221 224 227 232 236 237 237 237 239 243 247 247 245 245 249 246 241 241 242 235 229 227 229 231 233 235 237 239 241 243 246 249 252 255 258 261 264 267 268 270 273 276 279 281 282 281 279 277 276 277 281 286 288 287 285 283 283 284 287 290 292 292 292 292 291 291 289 287 286 285
213 215 215 212 213 215 217 218 220 220 217 212 211 212 210 211 214 219 223 228 230 233 235 236 238 241 244 245 244 242 243 247 244 235 231 230 227 225 227 230 232 233 234 236 238 241 244 247 251 254 257 260 263 265 267 269 272 277 280 282 282 282 280 279 277 277 278 280 284 287 287 285 284 285 286 289 290 290 288 287 288 290 290 290 289 288 287
211 214 214 212 211 211 212 213 215 218 220 217 214 215 215 215 217 219 222 226 229 232 235 235 235 238 239 237 235 236 238 237 230 222 218 219 221 224 227 229 231 233 234 237 240 243 246 249 252 255 258 260 262 264 267 270 275 278 280 280 280 280 280 279 279 278 278 279 282 285 286 286 286 286 288 289 287 285 282 283 285 287 289 289 288 288 287
208 210 210 209 209 209 209 211 214 217 219 219 219 220 221 222 222 222 223 226 231 234 234 230 228 230 230 225 221 221 222 220 218 216 215 217 220 223 226 229 231 234 237 240 243 246 248 251 254 256 258 260 262 265 268 271 273 275 276 277 279 280 281 281 281 280 279 279 280 282 283 284 285 285 285 284 282 280 279 281 284 285 286 287 287 287 286
208 207 207 207 207 209 212 216 218 220 220 219 218 219 223 226 226 225 225 227 228 229 226 220 219 221 223 220 214 210 209 210 213 216 218 220 223 225 227 230 233 237 240 243 246 248 251 253 256 257 260 262 264 266 268 269 270 271 273 277 280 282 283 284 283 281 280 279 278 279 280 280 280 280 279 278 278 279 280 282 283 284 286 287 288 288 289
212 209 209 209 209 211 215 219 221 223 223 222 222 222 224 226 227 226 224 221 217 213 211 211 213 215 216 217 216 213 211 212 215 218 220 222 225 227 230 233 236 239 242 244 247 250 253 255 257 259 261 263 265 266 266 266 268 271 273 276 278 281 282 281 279 277 276 276 276 276 276 277 276 277 278 279 279 280 281 282 283 285 287 288 289 290 290
211 211 213 214 215 217 220 221 222 223 224 224 225 226 226 226 225 222 217 211 207 203 201 204 209 210 211 215 216 215 215 216 218 220 222 224 227 229 232 234 237 240 243 245 249 251 253 255 257 259 261 263 264 263 263 265 269 271 272 273 275 277 277 275 274 273 273 274 274 274 274 275 276 277 278 279 279 280 281 282 284 285 287 288 289 289 290
195 202 207 211 214 218 222 223 221 221 222 221 219 220 220 218 216 213 209 206 207 206 206 209 211 208 207 211 214 212 211 213 217 222 226 227 228 229 231 234 238 241 244 247 250 252 254 257 258 260 262 262 262 262 263 266 268 269 271 272 273 273 270 269 270 274 276 277 277 277 277 277 277 277 278 279 280 280 281 282 283 285 286 287 288 289 290
174 181 188 192 192 193 202 209 209 208 208 206 205 207 208 207 204 202 200 199 201 203 205 208 209 207 207 211 213 211 212 215 218 221 225 227 228 231 233 236 240 243 246 249 252 253 255 257 259 260 261 260 260 261 263 265 267 269 270 270 267 263 262 265 272 277 280 280 279 279 278 278 277 277 277 277 278 279 280 282 284 286 288 289 291 292 293
187 186 186 187 186 183 183 189 194 195 193 193 196 200 203 204 203 200 197 195 197 200 203 203 204 205 208 213 216 214 215 219 220 222 226 230 233 236 237 237 239 242 246 249 252 255 256 257 258 259 259 258 260 262 264 266 268 269 269 265 261 261 264 268 272 275 275 275 275 274 274 273 273 274 275 276 278 280 282 285 287 289 291 293 294 295 295
205 204 203 202 200 196 191 190 192 193 192 193 196 199 202 204 205 203 201 200 201 204 207 207 207 207 209 213 216 216 216 219 221 224 229 234 237 239 240 241 243 245 247 249 251 253 256 257 258 258 258 259 261 263 265 268 268 267 264 260 260 263 265 267 269 270 269 268 268 268 269 270 271 273 275 278 280 283 286 288 291 293 294 295 295 296 296
211 211 212 212 210 207 204 201 200 200 199 199 200 201 203 205 207 207 207 207 207 208 209 210 211 211 211 213 215 217 218 220 223 227 231 234 237 240 243 246 247 248 250 251 252 253 255 257 259 259 260 261 262 264 265 266 264 261 260 258 259 261 263 264 265 265 265 265 266 268 270 272 274 276 278 280 283 286 289 290 291 292 292 292 293 294 296
218 218 217 217 215 212 211 210 208 206 205 205 204 205 207 208 209 210 211 211 212 212 212 213 214 215 215 216 218 221 224 226 228 231 234 236 239 241 243 245 247 249 251 252 253 255 257 258 260 263 264 264 264 264 263 261 260 259 260 261 262 262 262 262 263 264 266 268 270 272 274 276 278 280 282 284 286 287 287 287 286 287 289 290 292 296 297
223 222 222 222 221 218 216 215 214 212 211 210 209 210 210 211 212 213 213 213 214 214 214 216 217 218 220 221 223 226 229 231 232 234 236 237 238 240 242 244 245 247 249 251 253 255 257 259 262 265 266 265 264 263 261 260 259 260 261 262 263 263 263 265 267 269 271 272 274 275 277 279 280 281 282 282 282 280 278 278 280 282 286 288 292 295 296
226 225 224 224 225 224 223 221 219 218 217 216 215 214 214 214 215 216 216 217 217 217 217 219 220 222 224 226 228 229 231 233 234 234 235 236 237 238 240 241 243 245 247 250 253 256 258 261 264 265 266 265 263 261 260 260 260 260 260 260 262 263 265 267 270 272 273 274 275 277 277 277 276 275 272 269 266 263 263 268 273 279 284 288 291 293 295
232 230 227 227 227 227 227 227 225 223 222 221 219 218 218 217 218 219 219 220 221 222 222 223 225 227 228 229 230 231 231 233 234 234 235 236 237 237 238 240 242 245 248 250 253 256 259 262 263 264 264 263 261 259 258 257 257 257 257 258 260 262 265 267 269 271 273 273 273 272 269 264 260 257 253 251 251 254 259 267 274 281 286 289 290 292 293
234 234 232 230 229 229 230 230 229 229 227 226 224 223 221 220 220 220 221 221 223 224 225 226 227 228 229 230 230 230 230 231 232 233 234 235 236 238 240 241 244 246 249 252 255 257 259 260 260 260 260 258 257 256 254 254 254 255 256 259 262 264 266 268 269 269 267 263 258 250 242 236 233 234 238 244 251 260 269 276 281 286 289 290 290 291 291
227 229 230 229 229 228 229 229 229 229 229 229 229 228 227 225 224 222 222 222 223 224 225 226 227 227 227 228 229 229 230 231 232 232 233 234 235 237 240 243 245 248 251 254 256 257 258 258 257 256 255 254 253 253 252 252 252 252 255 259 263 265 267 265 261 255 247 239 231 225 222 223 228 235 245 257 267 275 282 287 290 292 292 292 292 292 291
219 221 223 224 225 226 228 229 229 229 230 230 230 231 230 230 229 227 225 224 224 224 225 225 226 227 227 227 228 228 229 230 230 231 232 233 234 237 240 243 247 250 252 254 256 256 256 254 253 252 252 251 250 250 249 249 249 250 253 257 260 259 254 245 232 222 216 215 215 217 222 231 241 252 263 273 280 285 289 291 292 292 292 292 292 292 293
220 220 220 221 222 224 227 229 230 230 231 231 231 231 231 231 230 230 228 226 225 225 225 225 225 226 226 226 226 226 226 226 227 229 231 233 235 237 241 244 247 250 251 253 253 252 251 250 250 249 247 245 244 243 243 245 247 250 252 252 247 237 223 211 204 202 204 208 213 219 228 239 250 260 269 276 281 285 287 289 289 290 290 290 290 291 290
229 228 227 226 226 226 227 229 231 232 233 234 234 234 233 233 232 231 229 228 226 225 225 225 225 225 225 224 224 224 224 224 226 228 231 233 236 238 241 244 246 249 250 250 249 246 244 243 241 240 237 236 238 241 244 246 247 246 241 232 220 208 201 198 200 205 212 219 227 235 245 255 264 271 277 281 283 285 287 288 288 289 290 289 289 288 286
233 230 228 226 226 227 229 231 233 235 236 236 236 236 236 235 233 231 229 227 225 224 223 222 222 222 222 222 222 223 223 224 226 229 231 235 238 241 242 243 245 246 245 244 241 238 233 228 226 227 231 236 240 243 242 239 234 225 214 205 199 198 198 201 209 218 227 237 247 255 263 270 275 279 282 284 286 287 287 288 288 288 289 288 287 286 284
228 225 224 224 226 230 233 235 236 238 238 238 237 236 236 234 232 229 227 225 223 220 219 218 218 218 219 219 220 221 223 224 227 230 233 236 239 240 239 238 238 236 234 232 229 223 218 215 219 228 234 237 236 230 220 210 202 197 195 195 198 202 208 215 224 233 243 252 261 268 273 277 279 281 283 285 286 286 287 286 286 286 286 285 284 284 284
231 229 229 230 231 233 235 236 237 238 238 238 237 236 235 232 228 224 222 220 217 215 214 214 215 215 216 217 219 221 223 225 227 230 233 235 236 235 233 230 227 225 223 220 215 211 212 218 226 230 229 223 213 204 196 190 189 191 195 201 208 215 222 232 242 251 259 265 270 274 277 279 281 283 284 285 286 286 286 286 286 285 283 282 281 282 283
239 233 229 227 226 228 230 233 236 238 239 238 237 233 228 223 219 215 212 210 209 208 208 210 211 213 214 216 218 220 222 224 226 228 229 229 226 222 218 215 215 215 213 209 208 211 218 223 222 216 207 199 192 188 186 188 193 198 205 213 222 231 240 249 257 262 267 270 272 274 276 279 281 283 284 285 285 285 285 285 285 284 284 284 285 286 289
234 223 218 215 214 215 219 223 230 235 235 231 225 218 212 205 201 199 200 200 201 202 203 205 208 210 212 214 217 219 220 222 222 221 218 214 208 204 202 203 204 205 205 206 210 214 215 210 200 192 188 186 185 186 191 196 201 209 218 230 240 249 255 261 265 268 271 274 275 277 279 280 280 280 279 278 280 282 283 284 285 288 290 294 296 298 300
214 201 200 201 199 199 202 206 213 220 217 206 198 195 193 189 187 189 192 195 197 200 202 204 207 209 211 213 215 215 215 213 210 206 201 197 195 195 196 197 199 200 200 201 203 201 194 186 181 181 184 187 189 193 200 207 216 227 237 246 253 258 261 264 268 271 274 277 279 282 283 284 283 281 280 280 282 285 288 291 295 298 300 302 303 303 305
193 187 190 188 181 177 182 189 195 198 195 186 180 181 181 180 181 184 186 189 191 194 197 201 205 208 208 207 205 201 198 196 195 192 190 190 192 195 197 197 194 189 184 180 180 179 178 178 180 184 188 192 197 205 214 225 235 243 248 254 258 261 264 267 270 272 275 278 280 281 281 282 283 285 288 289 290 292 295 298 301 302 303 303 304 305 306
190 189 187 177 166 167 175 179 178 182 182 176 170 171 174 176 178 180 181 181 183 184 186 188 190 188 186 187 189 187 186 188 188 187 187 188 189 190 191 190 184 176 171 171 172 174 177 181 185 190 196 204 211 220 230 238 243 246 249 254 259 264 268 272 276 278 279 281 282 282 281 283 287 291 294 296 299 301 302 302 303 303 303 304 305 306 306
192 193 188 177 170 171 171 160 148 156 168 172 170 169 170 171 173 175 175 175 175 174 171 171 173 174 177 183 186 184 181 180 179 177 176 174 172 170 171 171 171 169 170 172 173 176 180 187 194 202 210 218 223 228 235 240 243 246 250 255 259 264 269 273 277 279 281 283 285 286 288 291 293 295 297 300 302 303 303 303 303 303 303 305 306 307 307
187 181 175 174 172 166 156 140 127 129 143 159 169 171 168 166 167 169 169 169 169 168 167 170 175 178 178 177 175 172 169 169 167 165 164 163 162 162 163 165 168 171 173 176 178 182 188 195 204 211 217 221 224 228 234 240 244 248 253 258 264 268 270 272 276 279 281 284 286 288 290 292 294 297 299 301 302 302 302 304 304 305 306 306 307 308 308
176 166 163 166 165 159 150 142 137 135 137 146 157 163 162 159 159 160 161 162 165 168 172 176 177 173 166 163 162 161 160 159 158 158 158 159 160 162 164 167 170 173 176 179 185 191 195 201 209 215 218 220 224 229 236 241 246 251 257 262 267 272 274 276 278 280 282 284 287 289 291 293 295 297 299 300 300 301 303 305 306 307 307 308 308 308 309
166 163 161 158 154 150 146 144 146 148 148 149 154 158 160 159 160 161 162 165 168 171 173 172 168 162 158 157 155 153 151 151 152 153 156 158 162 166 169 173 177 181 182 183 186 191 196 202 208 213 217 221 226 231 236 243 249 254 259 264 268 273 277 279 281 282 284 285 286 288 291 292 294 296 298 299 300 302 303 304 305 306 307 307 308 308 309
151 150 148 143 138 135 135 135 137 140 141 144 147 151 153 155 158 160 160 160 159 157 156 154 153 152 152 152 152 152 152 154 156 158 160 163 167 171 174 176 179 183 185 186 187 190 194 199 204 209 214 221 228 235 242 249 255 261 265 269 272 276 278 280 281 283 284 285 287 288 290 291 292 294 295 297 298 299 300 301 302 303 304 305 306 307 308
136 134 132 129 125 122 123 124 125 126 128 130 132 134 135 137 140 143 144 144 144 144 145 146 148 150 151 153 153 154 155 157 160 163 167 169 171 173 175 178 180 182 184 187 189 192 197 202 208 215 223 230 237 245 252 258 263 267 270 273 275 277 279 280 282 283 284 285 286 287 288 289 290 292 293 294 295 296 298 299 300 301 301 303 304 305 306
127 125 122 119 117 117 118 120 120 121 123 125 126 128 130 133 135 137 138 140 142 143 146 148 150 152 153 154 155 155 157 160 164 169 172 173 175 177 180 183 185 186 188 191 197 203 210 218 225 232 238 244 248 253 257 261 265 269 271 273 275 278 279 281 282 283 284 285 285 286 287 288 289 290 291 292 293 294 295 296 297 298 299 300 301 302 302
121 118 116 115 115 117 120 121 122 123 125 127 128 129 132 134 136 138 141 143 145 148 150 153 154 155 156 158 160 162 165 168 171 175 178 180 182 185 188 191 194 197 199 204 210 218 226 234 240 244 248 252 255 258 260 263 266 269 271 273 275 277 278 280 282 283 285 286 286 287 288 288 289 290 291 291 291 292 293 293 294 295 296 298 299 300 300
Height
5632 5635 5638 5641 5645 5648 5652 5655 5658 5661 5664 5668 5671 5674 5676 5679 5682 5685 5689 5693 5696 5700 5703 5705 5708 5711 5713 5715 5717 5719 5721 5723 5726 5728 5730 5732 5733 5734 5735 5737 5738 5740 5742 5743 5744 5746 5747 5748 5749 5750 5751 5752 5753 5754 5754 5754 5754 5754 5754 5755 5755 5754 5754 5753 5752 5751 5750 5749 5749 5748 5747 5746 5745 5745 5744 5744 5743 5743 5742 5742 5741 5740 5739 5738 5736 5735 5733
5630 5633 5636 5639 5642 5645 5649 5652 5655 5658 5662 5665 5669 5671 5674 5677 5680 5683 5687 5690 5694 5697 5700 5702 5704 5706 5708 5710 5712 5714 5717 5719 5722 5724 5726 5728 5728 5729 5731 5733 5735 5736 5738 5739 5741 5742 5743 5744 5746 5747 5748 5749 5749 5750 5750 5750 5751 5751 5751 5751 5751 5751 5750 5750 5749 5748 5747 5746 5745 5744 5743 5743 5742 5742 5741 5741 5740 5740 5739 5739 5738 5737 5736 5735 5734 5733 5731
5627 5630 5633 5636 5639 5643 5646 5649 5653 5656 5659 5663 5666 5668 5671 5674 5677 5680 5684 5687 5689 5693 5695 5697 5699 5702 5704 5706 5708 5710 5713 5716 5718 5720 5722 5724 5724 5725 5727 5729 5731 5733 5734 5735 5737 5738 5739 5741 5742 5743 5744 5745 5745 5745 5746 5747 5747 5748 5748 5748 5748 5748 5747 5746 5746 5744 5743 5743 5742 5741 5740 5739 5739 5739 5738 5738 5737 5737 5736 5736 5735 5734 5733 5732 5731 5730 5729
5624 5628 5631 5634 5638 5641 5644 5647 5651 5654 5657 5660 5663 5666 5668 5671 5674 5677 5680 5683 5686 5689 5692 5693 5696 5698 5700 5702 5704 5707 5709 5712 5714 5716 5718 5720 5721 5722 5724 5726 5728 5729 5730 5732 5733 5735 5736 5738 5739 5739 5740 5740 5740 5741 5742 5743 5744 5744 5745 5744 5744 5744 5744 5743 5742 5741 5740 5739 5738 5738 5737 5736 5736 5736 5735 5735 5734 5734 5733 5733 5732 5732 5731 5730 5728 5727 5726
5623 5626 5629 5632 5636 5639 5641 5644 5648 5652 5655 5658 5660 5664 5667 5669 5672 5675 5677 5681 5684 5686 5689 5691 5693 5695 5697 5699 5701 5704 5706 5708 5711 5713 5715 5716 5718 5719 5721 5723 5725 5726 5727 5729 5730 5732 5733 5734 5735 5735 5735 5736 5736 5738 5739 5740 5741 5741 5741 5741 5741 5741 5741 5740 5739 5738 5737 5736 5735 5735 5734 5733 5733 5733 5732 5732 5731 5731 5730 5729 5729 5728 5728 5727 5725 5724 5723
5622 5625 5628 5631 5633 5635 5638 5642 5645 5649 5652 5655 5658 5661 5664 5666 5669 5672 5675 5678 5680 5683 5686 5688 5690 5693 5695 5697 5699 5700 5703 5705 5707 5709 5711 5713 5714 5716 5718 5721 5722 5723 5725 5726 5727 5728 5729 5730 5731 5731 5731 5732 5733 5734 5736 5737 5737 5737 5737 5737 5737 5737 5737 5737 5736 5735 5734 5733 5732 5732 5731 5731 5730 5730 5729 5729 5728 5728 5727 5726 5726 5725 5724 5724 5723 5721 5720
5619 5623 5626 5628 5629 5632 5636 5639 5643 5646 5649 5652 5655 5658 5660 5663 5667 5670 5673 5675 5677 5679 5682 5684 5687 5689 5692 5694 5696 5698 5700 5702 5703 5704 5707 5709 5711 5713 5715 5717 5719 5720 5722 5723 5724 5724 5725 5726 5727 5727 5728 5729 5730 5731 5732 5733 5733 5734 5734 5733 5733 5733 5733 5733 5732 5731 5731 5730 5729 5729 5728 5728 5727 5727 5726 5726 5725 5725 5724 5723 5723 5722 5721 5720 5720 5719 5718
5617 5620 5622 5624 5627 5630 5634 5636 5640 5643 5646 5649 5651 5654 5657 5660 5664 5667 5670 5672 5674 5677 5679 5681 5684 5686 5689 5691 5693 5695 5698 5699 5699 5701 5703 5705 5707 5709 5711 5712 5714 5717 5718 5719 5720 5720 5721 5722 5723 5724 5725 5726 5727 5728 5729 5730 5730 5730 5730 5730 5730 5730 5730 5730 5729 5728 5728 5727 5726 5726 5725 5725 5724 5723 5723 5723 5722 5722 5721 5720 5720 5719 5718 5717 5716 5716 5715
5616 5619 5621 5623 5626 5629 5632 5635 5638 5641 5644 5646 5648 5650 5653 5656 5660 5664 5666 5669 5671 5674 5677 5679 5681 5684 5686 5688 5690 5692 5694 5696 5697 5698 5700 5702 5704 5705 5707 5709 5712 5713 5714 5714 5715 5717 5718 5719 5719 5721 5722 5723 5724 5725 5726 5726 5727 5726 5726 5726 5726 5726 5726 5726 5726 5725 5724 5724 5723 5723 5722 5722 5721 5720 5720 5720 5719 5719 5718 5718 5717 5716 5715 5714 5713 5713 5712
5616 5618 5621 5622 5625 5628 5631 5634 5636 5639 5641 5642 5644 5647 5650 5653 5657 5660 5663 5666 5669 5672 5674 5677 5679 5681 5683 5685 5688 5690 5692 5694 5695 5697 5698 5699 5701 5703 5704 5706 5709 5710 5710 5711 5712 5713 5714 5715 5716 5718 5719 5720 5721 5722 5722 5723 5723 5723 5723 5723 5723 5723 5723 5722 5722 5721 5721 5721 5720 5720 5719 5718 5718 5717 5717 5716 5716 5716 5715 5715 5714 5714 5713 5712 5711 5710 5709
5614 5617 5619 5621 5624 5628 5631 5632 5633 5635 5637 5640 5642 5644 5647 5650 5653 5657 5661 5664 5667 5670 5672 5674 5676 5678 5681 5683 5686 5688 5690 5691 5693 5695 5696 5697 5699 5701 5702 5703 5705 5707 5707 5708 5708 5709 5710 5712 5714 5715 5716 5717 5717 5718 5719 5719 5719 5719 5720 5720 5720 5719 5719 5719 5718 5718 5717 5717 5717 5716 5716 5715 5715 5714 5714 5713 5713 5712 5712 5712 5711 5711 5710 5709 5708 5707 5706
5613 5615 5617 5620 5623 5626 5628 5628 5630 5632 5636 5639 5640 5641 5644 5647 5651 5655 5659 5662 5664 5667 5670 5672 5674 5676 5678 5681 5684 5686 5687 5688 5690 5692 5693 5694 5696 5698 5699 5700 5701 5703 5704 5705 5705 5706 5707 5709 5711 5712 5713 5713 5714 5715 5715 5716 5716 5716 5716 5716 5716 5716 5716 5715 5715 5714 5714 5714 5713 5713 5712 5712 5712 5711 5710 5710 5710 5709 5709 5709 5708 5708 5707 5706 5706 5705 5704
5612 5613 5615 5618 5621 5623 5625 5626 5628 5632 5635 5636 5637 5640 5644 5647 5650 5653 5657 5659 5662 5664 5666 5669 5671 5673 5676 5678 5680 5681 5683 5685 5687 5688 5690 5691 5693 5694 5696 5697 5698 5700 5701 5702 5702 5703 5704 5706 5707 5709 5710 5710 5711 5712 5712 5712 5713 5713 5713 5713 5713 5713 5712 5712 5712 5711 5711 5710 5710 5709 5709 5709 5708 5708 5707 5707 5707 5706 5706 5706 5705 5705 5704 5704 5703 5702 5701
5610 5612 5614 5616 5619 5621 5623 5625 5628 5631 5632 5634 5636 5640 5643 5645 5647 5650 5654 5656 5658 5661 5663 5666 5669 5671 5672 5674 5675 5677 5679 5681 5683 5685 5687 5688 5689 5691 5692 5694 5695 5697 5697 5698 5699 5700 5702 5703 5705 5706 5707 5707 5708 5709 5709 5709 5709 5709 5709 5709 5709 5709 5709 5709 5708 5708 5707 5707 5707 5706 5706 5706 5705 5705 5704 5704 5703 5703 5702 5702 5702 5701 5701 5700 5700 5699 5698
5608 5610 5612 5615 5618 5620 5622 5624 5627 5629 5630 5632 5636 5638 5639 5641 5644 5647 5650 5653 5656 5658 5661 5664 5665 5667 5668 5670 5672 5674 5676 5677 5679 5681 5683 5684 5685 5687 5689 5691 5692 5694 5694 5695 5697 5698 5699 5700 5702 5703 5703 5704 5705 5705 5706 5706 5706 5706 5706 5706 5706 5706 5705 5705 5705 5704 5704 5704 5704 5703 5703 5703 5702 5702 5701 5701 5700 5699 5699 5698 5698 5697 5697 5696 5696 5696 5695
5607 5609 5612 5614 5617 5619 5621 5623 5625 5627 5628 5630 5633 5635 5637 5639 5642 5645 5648 5651 5653 5656 5658 5660 5662 5663 5665 5667 5669 5671 5673 5674 5676 5677 5679 5680 5682 5684 5686 5688 5690 5691 5692 5693 5694 5696 5697 5697 5698 5699 5700 5701 5701 5702 5702 5702 5703 5703 5703 5703 5702 5702 5702 5701 5701 5701 5701 5701 5701 5701 5700 5699 5699 5698 5698 5697 5697 5696 5696 5695 5695 5694 5694 5693 5693 5692 5692
5605 5607 5610 5612 5614 5616 5618 5620 5623 5625 5626 5629 5631 5633 5636 5638 5640 5643 5646 5648 5651 5653 5655 5657 5658 5660 5662 5663 5665 5667 5669 5671 5672 5674 5675 5677 5679 5681 5683 5685 5687 5688 5689 5691 5692 5693 5694 5695 5695 5696 5697 5698 5698 5699 5699 5699 5699 5700 5699 5699 5699 5698 5698 5698 5698 5698 5698 5698 5698 5697 5697 5696 5696 5695 5695 5694 5694 5694 5693 5693 5692 5692 5691 5691 5690 5690 5689
5603 5605 5607 5610 5612 5614 5616 5618 5620 5623 5625 5627 5629 5632 5634 5636 5639 5641 5643 5645 5648 5650 5651 5653 5655 5657 5658 5659 5661 5663 5666 5668 5670 5671 5673 5675 5677 5679 5681 5683 5684 5686 5687 5688 5689 5690 5691 5692 5693 5694 5694 5695 5695 5696 5696 5696 5696 5696 5696 5696 5695 5695 5695 5695 5695 5695 5695 5695 5695 5694 5694 5693 5693 5692 5692 5692 5691 5691 5691 5690 5690 5689 5689 5688 5688 5687 5686
5601 5604 5606 5608 5610 5611 5613 5616 5618 5620 5622 5624 5627 5629 5632 5634 5636 5638 5640 5643 5644 5646 5647 5650 5652 5653 5655 5657 5659 5661 5663 5665 5667 5669 5671 5673 5675 5677 5678 5680 5682 5683 5685 5686 5687 5687 5688 5689 5690 5691 5692 5692 5693 5693 5693 5693 5693 5693 5693 5693 5692 5692 5692 5692 5692 5692 5692 5691 5691 5691 5691 5690 5690 5690 5689 5689 5689 5689 5688 5688 5687 5687 5686 5685 5685 5684 5683
5601 5603 5605 5607 5608 5610 5612 5614 5616 5618 5620 5622 5624 5626 5629 5631 5633 5635 5637 5640 5641 5642 5644 5646 5649 5651 5654 5656 5657 5659 5661 5663 5665 5667 5669 5671 5673 5675 5676 5678 5679 5681 5682 5683 5684 5685 5686 5687 5687 5688 5689 5689 5690 5690 5690 5690 5690 5690 5690 5690 5690 5689 5689 5689 5689 5689 5689 5688 5688 5688 5688 5688 5687 5687 5687 5687 5687 5686 5686 5685 5685 5684 5683 5683 5682 5681 5680
5600 5602 5604 5605 5607 5608 5610 5612 5614 5616 5618 5620 5622 5624 5626 5628 5630 5632 5634 5637 5638 5640 5642 5644 5647 5650 5652 5654 5656 5658 5660 5662 5663 5665 5667 5669 5671 5673 5674 5676 5677 5679 5680 5680 5681 5682 5683 5684 5684 5685 5686 5686 5686 5687 5687 5687 5687 5687 5687 5687 5687 5687 5687 5686 5686 5686 5686 5685 5685 5685 5685 5685 5685 5685 5684 5684 5684 5684 5683 5683 5682 5681 5681 5680 5679 5678 5678
5597 5599 5601 5603 5605 5607 5609 5610 5612 5614 5616 5618 5620 5622 5624 5626 5628 5630 5632 5634 5636 5638 5640 5642 5645 5648 5650 5652 5654 5656 5658 5660 5662 5663 5665 5667 5669 5671 5672 5674 5675 5676 5677 5677 5678 5679 5680 5681 5681 5682 5683 5683 5683 5683 5683 5684 5684 5684 5684 5684 5684 5684 5684 5684 5684 5683 5683 5683 5683 5683 5682 5682 5682 5682 5682 5682 5681 5681 5680 5680 5679 5679 5678 5677 5676 5676 5675
5595 5597 5599 5602 5604 5606 5607 5609 5610 5612 5614 5617 5619 5620 5622 5624 5626 5627 5629 5632 5634 5636 5638 5641 5643 5646 5648 5650 5652 5654 5656 5659 5660 5662 5663 5664 5666 5668 5670 5671 5672 5673 5674 5674 5675 5676 5677 5678 5678 5679 5679 5680 5680 5680 5680 5681 5681 5681 5681 5681 5681 5681 5681 5681 5681 5681 5681 5680 5680 5680 5680 5679 5679 5679 5679 5679 5678 5678 5678 5677 5676 5676 5675 5674 5673 5672 5672
5595 5597 5599 5601 5603 5604 5605 5607 5609 5610 5612 5614 5616 5618 5620 5623 5624 5626 5628 5630 5632 5635 5637 5640 5643 5645 5647 5648 5650 5652 5655 5657 5658 5660 5661 5662 5663 5665 5667 5668 5669 5670 5671 5671 5672 5673 5674 5675 5675 5676 5676 5676 5676 5676 5677 5678 5678 5678 5679 5679 5679 5679 5679 5678 5678 5678 5678 5678 5677 5677 5677 5677 5676 5676 5676 5676 5675 5675 5675 5674 5673 5672 5672 5671 5670 5669 5668
5596 5597 5599 5601 5602 5604 5605 5606 5608 5609 5611 5613 5615 5617 5619 5621 5623 5625 5627 5629 5631 5633 5635 5638 5640 5643 5645 5647 5648 5651 5653 5655 5656 5657 5658 5659 5661 5662 5664 5665 5667 5667 5668 5669 5670 5670 5671 5671 5672 5672 5672 5673 5673 5674 5674 5675 5675 5676 5676 5676 5676 5676 5676 5675 5675 5675 5675 5675 5675 5674 5674 5674 5673 5673 5673 5673 5672 5672 5671 5671 5670 5669 5668 5667 5666 5666 5665
5596 5597 5599 5600 5602 5604 5605 5606 5608 5609 5611 5613 5615 5616 5618 5620 5622 5624 5626 5628 5630 5632 5634 5636 5638 5640 5642 5644 5646 5648 5650 5652 5653 5654 5655 5657 5658 5660 5661 5662 5663 5664 5665 5666 5667 5668 5668 5668 5668 5669 5669 5670 5671 5671 5671 5672 5672 5673 5673 5673 5673 5673 5672 5672 5672 5672 5672 5672 5672 5671 5671 5671 5671 5670 5670 5670 5669 5668 5668 5667 5666 5666 5665 5664 5664 5663 5662
5594 5595 5597 5598 5600 5602 5604 5605 5607 5608 5610 5612 5614 5615 5617 5619 5621 5622 5624 5626 5628 5630 5632 5634 5636 5638 5640 5642 5644 5645 5647 5648 5650 5651 5653 5654 5656 5657 5657 5658 5660 5661 5662 5663 5664 5665 5665 5665 5666 5666 5666 5667 5667 5668 5669 5669 5669 5669 5669 5670 5670 5670 5669 5669 5669 5669 5669 5669 5669 5669 5668 5668 5668 5668 5667 5667 5666 5665 5665 5664 5663 5663 5662 5662 5662 5661 5661
5592 5594 5595 5596 5598 5600 5602 5603 5605 5607 5608 5610 5612 5614 5615 5617 5619 5621 5622 5624 5626 5628 5630 5632 5634 5636 5638 5640 5641 5643 5644 5646 5647 5648 5650 5652 5653 5654 5655 5656 5657 5658 5659 5660 5660 5661 5662 5662 5663 5663 5664 5664 5664 5664 5665 5665 5665 5665 5665 5666 5666 5666 5666 5666 5666 5666 5666 5666 5666 5666 5665 5665 5665 5665 5664 5664 5663 5663 5662 5662 5661 5661 5661 5660 5660 5660 5659
5590 5592 5593 5594 5595 5597 5599 5601 5602 5604 5606 5608 5610 5611 5613 5615 5617 5618 5620 5621 5623 5625 5627 5629 5631 5633 5635 5637 5639 5640 5641 5643 5644 5645 5647 5649 5650 5651 5652 5653 5654 5655 5656 5657 5657 5658 5659 5659 5660 5661 5661 5661 5661 5661 5661 5662 5662 5662 5662 5662 5662 5663 5663 5663 5663 5663 5663 5663 5663 5663 5663 5662 5662 5662 5662 5661 5661 5661 5660 5660 5659 5659 5659 5659 5659 5658 5658
5587 5588 5590 5591 5592 5594 5596 5597 5599 5601 5603 5605 5607 5608 5610 5612 5614 5615 5617 5619 5621 5623 5625 5627 5628 5630 5632 5634 5635 5637 5638 5639 5640 5642 5644 5645 5647 5648 5649 5651 5652 5652 5653 5654 5654 5655 5655 5656 5657 5657 5658 5658 5658 5658 5658 5658 5659 5659 5659 5659 5659 5659 5660 5660 5660 5660 5660 5660 5660 5660 5660 5660 5659 5659 5659 5659 5659 5659 5659 5659 5658 5658 5658 5658 5658 5657 5657
5582 5584 5586 5588 5589 5590 5592 5594 5596 5597 5599 5601 5603 5605 5607 5608 5610 5612 5614 5616 5618 5620 5622 5623 5625 5627 5629 5630 5632 5633 5635 5636 5638 5640 5641 5642 5644 5645 5647 5648 5649 5649 5650 5650 5651 5651 5652 5653 5653 5654 5654 5655 5655 5655 5656 5656 5656 5656 5656 5656 5656 5657 5657 5658 5658 5658 5658 5658 5658 5658 5658 5657 5657 5658 5658 5658 5658 5658 5658 5658 5658 5658 5657 5657 5657 5656 5656
5578 5580 5582 5583 5585 5587 5588 5589 5591 5593 5595 5597 5599 5600 5602 5604 5606 5608 5610 5612 5614 5616 5618 5620 5621 5623 5625 5626 5628 5630 5632 5633 5635 5637 5638 5639 5641 5642 5643 5644 5645 5646 5647 5647 5648 5648 5649 5649 5650 5651 5651 5652 5652 5652 5653 5653 5653 5653 5653 5653 5653 5654 5655 5656 5656 5656 5656 5656 5656 5656 5656 5656 5657 5657 5657 5657 5657 5657 5657 5657 5657 5656 5656 5655 5655 5655 5654
5575 5576 5577 5579 5581 5582 5583 5585 5586 5588 5590 5592 5594 5595 5597 5600 5602 5604 5606 5608 5610 5612 5614 5616 5618 5619 5621 5623 5625 5627 5628 5630 5632 5634 5636 5637 5638 5639 5640 5641 5642 5643 5643 5644 5644 5645 5646 5646 5646 5647 5648 5648 5649 5649 5650 5650 5651 5651 5651 5651 5651 5652 5653 5653 5653 5654 5654 5654 5655 5655 5655 5656 5656 5656 5656 5656 5656 5656 5655 5655 5655 5654 5654 5653 5653 5652 5652
5572 5573 5575 5576 5577 5578 5579 5581 5582 5584 5586 5587 5589 5591 5593 5595 5597 5599 5602 5604 5606 5608 5610 5612 5614 5615 5617 5620 5621 5623 5625 5627 5629 5631 5632 5634 5635 5636 5637 5638 5638 5639 5640 5640 5641 5642 5642 5643 5643 5644 5644 5645 5646 5647 5647 5648 5649 5649 5650 5650 5650 5650 5651 5651 5652 5652 5653 5653 5654 5654 5655 5655 5655 5655 5655 5654 5654 5654 5654 5653 5653 5652 5652 5651 5651 5650 5649
5570 5571 5572 5573 5574 5575 5577 5578 5579 5581 5582 5584 5585 5587 5588 5590 5592 5595 5597 5599 5602 5604 5606 5608 5610 5612 5614 5616 5618 5620 5622 5624 5625 5627 5629 5630 5631 5632 5633 5634 5635 5636 5636 5637 5638 5638 5639 5639 5640 5641 5642 5643 5644 5644 5645 5646 5646 5647 5648 5648 5649 5649 5650 5650 5651 5652 5652 5653 5653 5654 5654 5654 5654 5654 5654 5653 5653 5652 5652 5652 5651 5650 5650 5649 5649 5648 5648
5567 5568 5569 5570 5571 5572 5573 5574 5575 5577 5578 5580 5581 5582 5584 5586 5588 5590 5592 5594 5597 5599 5601 5604 5606 5609 5611 5613 5615 5616 5618 5620 5622 5624 5625 5627 5628 5629 5630 5631 5631 5632 5633 5634 5634 5635 5636 5637 5638 5639 5640 5641 5642 5642 5643 5644 5644 5645 5646 5646 5647 5648 5649 5650 5650 5651 5652 5652 5653 5653 5653 5653 5652 5652 5652 5651 5651 5651 5650 5649 5649 5648 5647 5647 5646 5646 5646
5564 5565 5566 5567 5568 5569 5570 5571 5572 5573 5574 5575 5577 5578 5579 5581 5583 5585 5587 5589 5592 5594 5597 5600 5603 5605 5607 5609 5611 5613 5615 5617 5619 5620 5622 5623 5625 5626 5627 5627 5628 5629 5630 5631 5632 5632 5633 5635 5636 5637 5638 5639 5640 5640 5641 5642 5642 5643 5644 5645 5647 5648 5648 5649 5650 5650 5651 5651 5651 5651 5651 5651 5650 5650 5650 5649 5648 5648 5647 5647 5646 5646 5645 5645 5644 5644 5644
5562 5562 5563 5564 5565 5566 5566 5567 5568 5569 5570 5571 5572 5573 5574 5575 5577 5580 5581 5584 5587 5590 5593 5596 5599 5601 5603 5605 5607 5609 5611 5614 5616 5617 5618 5620 5621 5622 5623 5624 5625 5626 5627 5628 5629 5630 5632 5633 5634 5635 5636 5637 5638 5638 5639 5640 5641 5643 5644 5645 5646 5647 5648 5648 5649 5649 5649 5650 5649 5649 5649 5648 5648 5648 5647 5647 5646 5645 5645 5644 5644 5644 5643 5643 5642 5642 5642
5559 5560 5561 5561 5562 5563 5563 5564 5565 5565 5566 5566 5567 5567 5568 5570 5572 5574 5577 5580 5583 5586 5589 5592 5595 5598 5600 5602 5604 5606 5609 5611 5613 5614 5615 5616 5617 5619 5620 5621 5622 5623 5625 5626 5628 5629 5630 5632 5633 5633 5634 5635 5636 5637 5639 5640 5641 5642 5643 5644 5645 5646 5647 5647 5648 5648 5648 5648 5648 5647 5647 5646 5646 5645 5644 5644 5643 5643 5642 5642 5641 5642 5641 5641 5640 5640 5640
5557 5558 5558 5559 5559 5560 5561 5561 5562 5562 5562 5562 5562 5563 5564 5565 5567 5570 5573 5577 5580 5583 5586 5589 5592 5595 5597 5600 5602 5604 5606 5608 5609 5611 5612 5613 5614 5616 5617 5618 5620 5622 5623 5625 5626 5628 5629 5630 5631 5632 5633 5635 5636 5637 5639 5640 5641 5642 5643 5644 5644 5645 5646 5646 5646 5646 5646 5646 5645 5645 5645 5644 5643 5643 5642 5642 5641 5640 5640 5640 5639 5639 5639 5639 5638 5638 5637
5556 5556 5556 5557 5558 5558 5559 5559 5559 5559 5559 5559 5560 5560 5561 5563 5565 5568 5572 5575 5578 5581 5584 5587 5590 5592 5594 5596 5598 5600 5602 5604 5606 5607 5609 5610 5612 5613 5615 5617 5618 5620 5622 5624 5625 5626 5628 5629 5630 5632 5633 5635 5636 5637 5638 5639 5641 5642 5642 5643 5643 5644 5644 5644 5644 5644 5643 5643 5643 5642 5642 5642 5641 5641 5640 5640 5639 5639 5638 5638 5638 5637 5637 5637 5636 5636 5635
5555 5555 5555 5556 5557 5557 5558 5558 5558 5558 5558 5559 5559 5560 5561 5562 5564 5567 5570 5573 5576 5579 5582 5584 5587 5589 5591 5593 5595 5597 5599 5601 5603 5605 5607 5608 5610 5612 5613 5615 5617 5619 5621 5623 5624 5626 5627 5629 5630 5632 5633 5634 5636 5637 5638 5639 5640 5641 5641 5642 5642 5642 5642 5642 5642 5641 5641 5640 5640 5640 5639 5639 5639 5638 5638 5638 5638 5637 5637 5636 5636 5635 5635 5635 5634 5633 5633
5555 5555 5555 5556 5556 5556 5557 5557 5557 5557 5558 5558 5559 5560 5561 5563 5565 5567 5570 5573 5575 5578 5581 5583 5586 5588 5590 5592 5593 5595 5597 5599 5601 5603 5605 5607 5609 5611 5613 5614 5616 5618 5620 5622 5624 5626 5627 5629 5630 5632 5633 5634 5635 5636 5637 5638 5639 5639 5640 5640 5640 5640 5640 5639 5639 5639 5639 5638 5638 5638 5637 5637 5637 5636 5636 5636 5636 5636 5635 5635 5634 5634 5633 5633 5632 5631 5631
5555 5555 5556 5556 5556 5556 5556 5556 5556 5556 5557 5558 5559 5560 5562 5564 5566 5568 5570 5573 5575 5578 5580 5583 5585 5587 5589 5591 5593 5595 5597 5599 5601 5603 5605 5607 5609 5611 5613 5614 5616 5617 5620 5622 5624 5626 5627 5629 5630 5631 5633 5634 5635 5635 5636 5637 5637 5638 5638 5638 5638 5638 5637 5637 5637 5637 5637 5636 5636 5636 5636 5635 5635 5635 5635 5634 5634 5634 5633 5633 5633 5632 5631 5631 5630 5629 5628
5556 5556 5556 5556 5556 5556 5557 5557 5556 5556 5557 5558 5560 5561 5563 5564 5566 5568 5570 5573 5575 5578 5580 5583 5585 5587 5588 5590 5592 5594 5596 5598 5600 5602 5604 5606 5608 5611 5613 5615 5617 5618 5620 5622 5624 5625 5627 5629 5630 5631 5632 5633 5633 5634 5635 5635 5636 5636 5636 5636 5636 5636 5636 5635 5635 5635 5635 5635 5634 5634 5634 5634 5633 5633 5633 5632 5632 5632 5631 5631 5631 5630 5629 5629 5628 5627 5626
5556 5556 5556 5557 5557 5557 5558 5558 5558 5558 5558 5560 5561 5562 5564 5565 5567 5569 5571 5573 5575 5578 5580 5583 5585 5587 5588 5590 5593 5594 5596 5598 5600 5602 5604 5606 5608 5610 5613 5615 5617 5619 5621 5622 5624 5625 5627 5628 5629 5630 5631 5631 5632 5633 5633 5634 5634 5634 5634 5634 5634 5634 5634 5634 5634 5633 5633 5633 5633 5632 5632 5632 5631 5631 5631 5630 5630 5630 5629 5629 5628 5628 5627 5626 5625 5624 5623
5557 5557 5557 5557 5558 5558 5559 5559 5559 5560 5561 5562 5563 5564 5566 5567 5568 5570 5572 5574 5576 5579 5581 5583 5585 5587 5589 5591 5593 5595 5597 5599 5601 5603 5605 5608 5610 5612 5614 5616 5618 5619 5621 5622 5624 5625 5626 5627 5628 5629 5630 5630 5631 5632 5632 5632 5632 5632 5632 5632 5632 5632 5632 5632 5632 5632 5632 5631 5631 5631 5630 5630 5630 5629 5629 5628 5628 5627 5627 5626 5625 5624 5624 5623 5622 5621 5620
5557 5557 5558 5558 5558 5559 5559 5560 5560 5561 5562 5563 5565 5566 5567 5569 5570 5572 5574 5576 5578 5580 5582 5584 5586 5588 5590 5592 5594 5596 5598 5601 5603 5605 5608 5610 5612 5614 5615 5617 5618 5619 5620 5622 5623 5624 5625 5626 5627 5628 5628 5629 5630 5630 5630 5631 5631 5631 5631 5631 5631 5631 5630 5630 5630 5630 5630 5630 5629 5629 5629 5628 5628 5627 5626 5626 5625 5624 5623 5623 5622 5621 5620 5619 5618 5617 5616
5558 5558 5559 5559 5559 5560 5560 5561 5562 5562 5563 5565 5566 5567 5569 5570 5572 5574 5576 5578 5580 5581 5583 5585 5587 5590 5592 5594 5596 5598 5599 5601 5603 5605 5607 5610 5612 5614 5615 5617 5618 5619 5620 5621 5622 5623 5624 5625 5626 5627 5627 5628 5628 5628 5629 5629 5629 5629 5629 5629 5629 5629 5629 5629 5628 5628 5628 5628 5627 5627 5626 5626 5625 5625 5624 5623 5622 5621 5620 5619 5618 5617 5616 5615 5614 5613 5611
5559 5560 5560 5560 5560 5561 5562 5563 5564 5564 5565 5567 5568 5569 5571 5573 5575 5577 5578 5580 5582 5584 5586 5588 5590 5592 5594 5596 5598 5600 5601 5603 5605 5607 5608 5610 5611 5613 5615 5616 5617 5618 5619 5621 5622 5623 5623 5624 5625 5626 5626 5626 5627 5627 5627 5627 5627 5627 5627 5627 5627 5627 5627 5626 5626 5626 5626 5625 5625 5624 5624 5623 5622 5622 5621 5620 5619 5618 5617 5616 5615 5614 5613 5612 5610 5609 5608
5562 5562 5562 5562 5563 5564 5565 5566 5566 5567 5568 5570 5571 5572 5574 5576 5578 5579 5581 5583 5585 5587 5589 5591 5593 5594 5596 5598 5600 5601 5603 5605 5607 5608 5609 5610 5612 5613 5614 5616 5617 5618 5619 5620 5621 5622 5622 5623 5624 5624 5624 5625 5625 5625 5625 5625 5625 5625 5625 5625 5625 5625 5624 5624 5623 5623 5623 5622 5622 5621 5621 5620 5619 5619 5618 5617 5616 5614 5613 5612 5611 5610 5609 5608 5606 5605 5604
5564 5565 5565 5565 5566 5567 5568 5569 5570 5571 5572 5573 5574 5576 5577 5579 5581 5582 5584 5586 5588 5589 5591 5593 5594 5596 5598 5599 5601 5603 5604 5605 5607 5608 5610 5611 5612 5613 5614 5615 5616 5617 5618 5619 5619 5620 5621 5621 5622 5622 5623 5623 5623 5623 5623 5623 5623 5623 5623 5622 5622 5622 5622 5621 5621 5620 5619 5619 5618 5618 5617 5616 5615 5615 5614 5613 5612 5611 5609 5608 5607 5606 5604 5603 5602 5600 5599